Regional Weather Roundup
Issued by NWS Charleston, WV

Home | Current Version | Previous Version | Graphics & Text | Print | Product List | Glossary On
Versions: 1 2 3 4 5 6 7 8 9 10 11 12 13 14 15 16 17 18 19 20 21 22 23 24 25 26 27 28 29 30 31 32 33 34 35 36 37 38 39 40 41 42 43 44 45 46 47 48 49 50
000
ASUS41 KRLX 301810
RWRRLX
West Virginia Regional Weather Roundup
National Weather Service Charleston WV
200 PM EDT TUE JUN 30 2015

Note: "fair" indicates few or no clouds below 12,000 feet with no
significant weather and/or obstructions to visibility.

WVZ003-301900-
Northern Panhandle of West Virginia

CITY           SKY/WX    TMP DP  RH WIND       PRES   REMARKS
WHEELING       PTSUNNY   74  63  68 SW12G22   29.85F
$$

WVZ009-301900-
Northwest West Virginia

CITY           SKY/WX    TMP DP  RH WIND       PRES   REMARKS
PARKERSBURG    NOT AVBL
$$

WVZ006-301900-
Western West Virginia

CITY           SKY/WX    TMP DP  RH WIND       PRES   REMARKS
HUNTINGTON     MOSUNNY   79  64  60 SW9G17    29.89F
$$

WVZ015-301900-
West Central West Virginia

CITY           SKY/WX    TMP DP  RH WIND       PRES   REMARKS
CHARLESTON     PTSUNNY   79  62  56 SW12      29.90F
$$

WVZ022-031-301900-
North Central West Virginia

CITY           SKY/WX    TMP DP  RH WIND       PRES   REMARKS
CLARKSBURG     MOSUNNY   77  64  64 SW13      29.89F
MORGANTOWN     MOSUNNY   78  61  55 SW7       29.88F
$$

WVZ025-035-042-045-301900-
Southern West Virginia

CITY           SKY/WX    TMP DP  RH WIND       PRES   REMARKS
BECKLEY        MOSUNNY   76  59  55 SW13G20   30.00S
LOGAN            N/A     79  66  65 CALM      29.91F
BLUEFIELD      PTSUNNY   77  60  55 W14G22    30.03S
LEWISBURG      MOSUNNY   79  58  49 SW13      29.98S
$$

WVZ047-301900-
Northern Mountains of West Virginia

CITY           SKY/WX    TMP DP  RH WIND       PRES   REMARKS
ELKINS         MOSUNNY   77  59  53 S9        29.94F
$$

WVZ052-301900-
Eastern Panhandle of West Virginia

CITY           SKY/WX    TMP DP  RH WIND       PRES   REMARKS
MARTINSBURG    MOSUNNY   84  64  50 SW9       29.86F
PETERSBURG     PTSUNNY   83  55  38 NE5       29.87F
$$


USA.gov is the U.S. government's official web portal to all federal, state and local government web resources and services.